FW7184 Weather Reports


time (UTC)temp
C
wind
direction
speed
KPH
gust
KPH
rain 1hr
cm
rain 24hr
cm
rain mn
cm
humidity
%
barometer
mb
20260504150837 18 145 0.0 0.0 0.00 0.00 0.00 41 1012.6
20260504150333 18 139 1.6 3.2 0.00 0.00 0.00 40 1012.5
20260504141304 16 102 1.6 1.6 0.00 0.00 0.00 44 1013.3
20260504140800 16 123 3.2 3.2 0.00 0.00 0.00 45 1013.2
20260504140256 15 135 0.0 0.0 0.00 0.00 0.00 48 1013.1
20260504130725 13 137 0.0 0.0 0.00 0.00 0.00 52 1013.8
20260504130220 12 128 0.0 1.6 0.00 0.00 0.00 53 1013.6
20260504120145 10 132 0.0 0.0 0.00 0.00 0.00 62 1014.2
20260504110612 8 114 0.0 0.0 0.00 0.00 0.00 67 1013.9
20260504110108 8 114 0.0 1.6 0.00 0.00 0.00 69 1014.0
20260504100534 6 136 0.0 0.0 0.00 0.00 0.00 72 1013.6
20260504081927 6 132 0.0 0.0 0.00 0.00 0.00 75 1013.2
20260504081424 6 134 0.0 0.0 0.00 0.00 0.00 73 1013.4
20260504080920 6 136 0.0 0.0 0.00 0.00 0.00 72 1013.1
20260504080417 6 136 0.0 0.0 0.00 0.00 0.00 72 1013.0
20260504070345 7 139 0.0 0.0 0.00 0.00 0.00 65 1012.9
20260504050732 5 128 0.0 0.0 0.00 0.00 0.00 84 1012.8
20260504050229 5 129 0.0 0.0 0.00 0.00 0.00 84 1012.6
20260504045726 5 127 0.0 0.0 0.00 0.00 0.00 83 1012.5
20260504045221 5 128 0.0 0.0 0.00 0.00 0.00 83 1012.6
20260504044719 5 132 0.0 0.0 0.00 0.00 0.00 83 1012.4
20260504044216 5 143 0.0 0.0 0.00 0.00 0.00 82 1012.4
20260504043713 5 132 0.0 0.0 0.00 0.00 0.00 82 1012.5
20260504043210 5 131 0.0 0.0 0.00 0.00 0.00 81 1012.6
20260504042708 5 135 0.0 0.0 0.00 0.00 0.00 83 1012.6
20260504042204 5 129 0.0 0.0 0.00 0.00 0.00 84 1012.4
20260504041700 5 129 0.0 0.0 0.00 0.00 0.00 84 1012.2
20260504041156 5 131 0.0 0.0 0.00 0.00 0.00 84 1012.4
20260504040653 5 129 0.0 0.0 0.00 0.00 0.00 84 1012.1
20260504040150 5 127 0.0 0.0 0.00 0.00 0.00 84 1012.2
20260504035647 5 130 0.0 0.0 0.00 0.00 0.00 83 1012.3
20260504035144 5 127 0.0 0.0 0.00 0.00 0.00 83 1012.3
20260504034641 5 127 0.0 0.0 0.00 0.00 0.00 83 1012.2
20260504034138 5 129 0.0 0.0 0.00 0.00 0.00 83 1012.4
20260504033636 5 128 0.0 0.0 0.00 0.00 0.00 81 1012.4
20260504033133 5 127 0.0 0.0 0.00 0.00 0.00 81 1012.2
20260504032630 5 127 0.0 0.0 0.00 0.00 0.00 81 1012.5
20260504032127 5 128 0.0 0.0 0.00 0.00 0.00 81 1012.4
20260504031624 5 131 0.0 0.0 0.00 0.00 0.00 80 1012.2
20260504031120 5 127 0.0 0.0 0.00 0.00 0.00 80 1012.2
20260504030617 5 127 0.0 0.0 0.00 0.00 0.00 79 1012.4
20260504030114 5 126 0.0 0.0 0.00 0.00 0.00 78 1012.4
20260504025610 5 130 0.0 0.0 0.00 0.00 0.00 77 1012.4
20260504025108 6 126 0.0 0.0 0.00 0.00 0.00 76 1012.3
20260504024605 6 127 0.0 0.0 0.00 0.00 0.00 75 1012.3
20260504024101 6 127 0.0 0.0 0.00 0.00 0.00 75 1012.5
20260504023557 6 128 0.0 0.0 0.00 0.00 0.00 74 1012.6
20260504023054 6 129 0.0 0.0 0.00 0.00 0.00 73 1012.3
20260504022550 6 127 0.0 0.0 0.00 0.00 0.00 72 1012.1
20260504022046 6 127 0.0 0.0 0.00 0.00 0.00 72 1012.2
20260504021544 6 127 0.0 0.0 0.00 0.00 0.00 71 1012.3
20260504021041 6 127 0.0 0.0 0.00 0.00 0.00 69 1012.4
20260504020537 7 123 0.0 0.0 0.00 0.00 0.00 69 1012.3
20260504020034 7 127 0.0 0.0 0.00 0.00 0.00 68 1012.4
20260504015531 7 134 0.0 0.0 0.00 0.00 0.00 67 1012.2
20260504015026 7 126 0.0 0.0 0.00 0.00 0.00 66 1012.2
20260504014522 7 131 0.0 0.0 0.00 0.00 0.00 66 1012.1
20260504014020 7 128 0.0 0.0 0.00 0.00 0.00 65 1012.3
20260504013518 7 127 0.0 0.0 0.00 0.00 0.00 64 1012.2
20260504013015 8 127 0.0 0.0 0.00 0.00 0.00 64 1012.2
20260504012512 8 126 0.0 0.0 0.00 0.00 0.00 63 1012.0
20260504012010 8 127 0.0 0.0 0.00 0.00 0.00 62 1012.1
20260504011506 8 123 0.0 0.0 0.00 0.00 0.00 62 1011.9
20260504011001 8 126 0.0 0.0 0.00 0.00 0.00 60 1011.9
20260504010458 9 126 0.0 0.0 0.00 0.00 0.00 58 1011.9
20260504005954 9 133 0.0 0.0 0.00 0.00 0.00 59 1011.9
20260504005451 10 112 0.0 0.0 0.00 0.00 0.00 57 1011.7
20260504004949 10 126 0.0 0.0 0.00 0.00 0.00 56 1011.7
20260504004446 10 127 0.0 0.0 0.00 0.00 0.00 54 1011.7
20260504003943 10 128 0.0 0.0 0.00 0.00 0.00 52 1011.5
20260504003439 10 129 0.0 0.0 0.00 0.00 0.00 51 1011.6
20260504002936 11 125 0.0 0.0 0.00 0.00 0.00 51 1011.2
20260504002433 11 128 0.0 0.0 0.00 0.00 0.00 48 1011.3
20260504001930 11 130 0.0 0.0 0.00 0.00 0.00 47 1011.0
20260504001428 12 148 1.6 1.6 0.00 0.00 0.00 45 1011.2
20260504000924 12 135 0.0 0.0 0.00 0.00 0.00 44 1011.0
20260504000423 12 132 0.0 0.0 0.00 0.00 0.00 44 1011.2
20260503235918 12 129 0.0 0.0 0.00 0.00 0.00 43 1010.9
20260503235416 12 131 0.0 0.0 0.00 0.00 0.00 41 1010.8
20260503234914 13 133 0.0 0.0 0.00 0.00 0.00 39 1010.7
20260503234411 13 192 0.0 1.6 0.00 0.00 0.00 39 1010.5
20260503233909 13 121 0.0 0.0 0.00 0.00 0.00 38 1010.6
20260503233405 13 91 0.0 1.6 0.00 0.00 0.00 38 1010.5
20260503232902 13 133 0.0 0.0 0.00 0.00 0.00 36 1010.7
20260503232359 13 127 0.0 0.0 0.00 0.00 0.00 37 1010.5
20260503231856 13 29 0.0 1.6 0.00 0.00 0.00 37 1010.4
20260503231354 13 184 4.8 4.8 0.00 0.00 0.00 36 1010.2
20260503230850 13 112 1.6 1.6 0.00 0.00 0.00 35 1010.3
20260503230346 13 97 1.6 1.6 0.00 0.00 0.00 35 1010.3
20260503225844 13 100 1.6 3.2 0.00 0.00 0.00 34 1010.1
20260503225340 13 126 0.0 0.0 0.00 0.00 0.00 34 1010.3
20260503224836 14 51 1.6 1.6 0.00 0.00 0.00 35 1010.1
20260503224333 14 77 0.0 1.6 0.00 0.00 0.00 34 1010.1
20260503223826 14 91 1.6 1.6 0.00 0.00 0.00 33 1010.2
20260503223323 14 80 1.6 1.6 0.00 0.00 0.00 31 1010.1
20260503222818 14 127 1.6 1.6 0.00 0.00 0.00 32 1010.2
20260503222317 14 93 3.2 8.0 0.00 0.00 0.00 31 1010.1
20260503221815 14 117 1.6 1.6 0.00 0.00 0.00 32 1009.9
20260503221314 14 68 3.2 3.2 0.00 0.00 0.00 32 1010.1
20260503220809 14 118 1.6 1.6 0.00 0.00 0.00 31 1010.0
20260503220306 14 105 0.0 1.6 0.00 0.00 0.00 32 1010.2
20260503215803 14 30 4.8 9.7 0.00 0.00 0.00 32 1010.0
20260503215300 14 119 1.6 3.2 0.00 0.00 0.00 31 1010.0
20260503214758 14 128 0.0 1.6 0.00 0.00 0.00 32 1010.2
20260503214254 14 112 0.0 1.6 0.00 0.00 0.00 31 1010.1
20260503213752 14 147 1.6 1.6 0.00 0.00 0.00 30 1010.2
20260503213249 14 75 4.8 11.3 0.00 0.00 0.00 31 1010.2
20260503212746 13 20 4.8 9.7 0.00 0.00 0.00 31 1010.0
20260503212244 13 181 0.0 3.2 0.00 0.00 0.00 32 1010.2
20260503211741 13 134 1.6 4.8 0.00 0.00 0.00 32 1009.9
20260503211237 14 138 3.2 4.8 0.00 0.00 0.00 32 1009.8
20260503210732 14 134 0.0 1.6 0.00 0.00 0.00 32 1010.0
20260503210230 14 120 0.0 0.0 0.00 0.00 0.00 35 1009.9
20260503205725 14 115 0.0 1.6 0.00 0.00 0.00 34 1009.9
20260503205222 14 79 1.6 3.2 0.00 0.00 0.00 34 1010.0
20260503204718 14 75 3.2 4.8 0.00 0.00 0.00 35 1009.9
20260503204216 14 105 1.6 3.2 0.00 0.00 0.00 34 1010.0
20260503203713 14 199 4.8 8.0 0.00 0.00 0.00 34 1009.8
20260503203211 14 188 4.8 4.8 0.00 0.00 0.00 34 1009.9
20260503202708 14 107 3.2 3.2 0.00 0.00 0.00 35 1009.8
20260503202206 13 305 3.2 8.0 0.00 0.00 0.00 33 1010.0
20260503201703 13 216 1.6 1.6 0.00 0.00 0.00 36 1009.9
20260503201200 13 143 6.4 17.7 0.00 0.00 0.00 34 1010.1
20260503200656 13 84 1.6 3.2 0.00 0.00 0.00 36 1009.8
20260503200153 13 62 0.0 0.0 0.00 0.00 0.00 36 1009.9
20260503195650 13 33 4.8 4.8 0.00 0.00 0.00 34 1010.1
20260503195147 13 128 1.6 1.6 0.00 0.00 0.00 35 1010.2
20260503194644 13 92 0.0 1.6 0.00 0.00 0.00 36 1010.3
20260503194139 13 84 0.0 1.6 0.00 0.00 0.00 37 1010.4
20260503193637 13 52 8.0 16.1 0.00 0.00 0.00 36 1010.5
20260503193132 13 73 0.0 1.6 0.00 0.00 0.00 37 1010.4
20260503192628 13 95 0.0 1.6 0.00 0.00 0.00 37 1010.4
20260503192124 13 37 3.2 4.8 0.00 0.00 0.00 36 1010.6
20260503191621 13 111 3.2 3.2 0.00 0.00 0.00 39 1010.7
20260503191118 12 170 3.2 3.2 0.00 0.00 0.00 39 1010.4
20260503190615 12 103 1.6 3.2 0.00 0.00 0.00 38 1010.5
20260503190112 13 22 6.4 9.7 0.00 0.00 0.00 37 1010.5
20260503185608 13 124 1.6 1.6 0.00 0.00 0.00 40 1010.6
20260503185108 13 190 1.6 1.6 0.00 0.00 0.00 39 1010.7
20260503184604 12 79 4.8 9.7 0.00 0.00 0.00 38 1010.7
20260503184101 12 119 0.0 0.0 0.00 0.00 0.00 39 1010.8
20260503183557 12 119 0.0 1.6 0.00 0.00 0.00 41 1010.9
20260503183055 12 63 8.0 16.1 0.00 0.00 0.00 39 1010.9
20260503182553 11 17 4.8 8.0 0.00 0.00 0.00 42 1011.1
20260503182050 11 124 3.2 8.0 0.00 0.00 0.00 42 1011.1
20260503181547 11 55 0.0 0.0 0.00 0.00 0.00 42 1010.9
20260503181044 11 134 0.0 0.0 0.00 0.00 0.00 43 1010.8
20260503180541 11 110 0.0 1.6 0.00 0.00 0.00 42 1011.2
20260503180038 11 107 1.6 1.6 0.00 0.00 0.00 41 1011.1
20260503175535 11 45 1.6 1.6 0.00 0.00 0.00 43 1011.2
20260503175032 12 14 3.2 4.8 0.00 0.00 0.00 43 1010.9
20260503174529 12 126 0.0 1.6 0.00 0.00 0.00 42 1011.2
20260503174025 12 9 3.2 4.8 0.00 0.00 0.00 44 1011.0
20260503173515 11 300 9.7 16.1 0.00 0.00 0.00 42 1011.1
20260503173012 11 159 3.2 4.8 0.00 0.00 0.00 43 1011.3
20260503172510 11 117 4.8 4.8 0.00 0.00 0.00 43 1011.5
20260503172006 11 39 8.0 9.7 0.00 0.00 0.00 43 1011.3
20260503171503 11 80 4.8 8.0 0.00 0.00 0.00 43 1011.5
20260503171001 10 149 1.6 3.2 0.00 0.00 0.00 44 1011.2
20260503170457 11 66 4.8 4.8 0.00 0.00 0.00 44 1011.2